When you browse on this site, cookies collect data to enhance your experience and personalize the content and advertising you see.
Visit our Privacy Policy to learn more. By continuing to use the site, you agree to this use of cookies and data.
  • In United Kingdom
  • List of Countries
  • For 7 days
  • Water Temperature
  • Satellite Maps
  • Weather Map
  • Weather Widgets
  • user-avatar
    Login

    Hourly Weather Ovrahove

    Today, 25 June, Tuesday

    Time Temperature Precipitation Wind Pressure Humidity
    00:00 +22°C° 0 mm 5 mps 753 mmHg 87%
    01:00 +22°C° 0 mm 5 mps 753 mmHg 89%
    02:00 +21°C° 0 mm 3 mps 754 mmHg 87%
    03:00 +21°C° 0.2 mm 4 mps 754 mmHg 89%
    04:00 +21°C° 0.2 mm 4 mps 754 mmHg 92%
    05:00 +21°C° 0.2 mm 5 mps 754 mmHg 94%
    06:00 +21°C° 0 mm 5 mps 754 mmHg 90%
    07:00 +22°C° 0 mm 6 mps 755 mmHg 85%
    08:00 +23°C° 0 mm 6 mps 755 mmHg 80%
    09:00 +24°C° 0 mm 6 mps 755 mmHg 76%
    10:00 +27°C° 0 mm 6 mps 756 mmHg 71%
    11:00 +28°C° 0 mm 6 mps 756 mmHg 66%
    12:00 +28°C° 0 mm 7 mps 756 mmHg 64%
    13:00 +29°C° 0 mm 7 mps 756 mmHg 62%
    14:00 +29°C° 0 mm 7 mps 756 mmHg 60%
    15:00 +28°C° 0 mm 7 mps 756 mmHg 61%
    16:00 +28°C° 0 mm 7 mps 756 mmHg 61%
    17:00 +27°C° 0 mm 7 mps 756 mmHg 62%
    18:00 +26°C° 0 mm 6 mps 756 mmHg 64%
    19:00 +23°C° 0 mm 6 mps 757 mmHg 67%
    20:00 +22°C° 0 mm 5 mps 757 mmHg 69%
    21:00 +21°C° 0 mm 5 mps 757 mmHg 72%
    22:00 +20°C° 0 mm 4 mps 757 mmHg 75%
    23:00 +19°C° 0 mm 4 mps 758 mmHg 78%

    Tomorrow, 26 June, Wednesday

    Time Temperature Precipitation Wind Pressure Humidity
    00:00 +18°C° 0 mm 4 mps 758 mmHg 79%
    01:00 +18°C° 0 mm 4 mps 758 mmHg 80%
    02:00 +17°C° 0 mm 3 mps 759 mmHg 82%
    03:00 +17°C° 0 mm 3 mps 759 mmHg 81%
    04:00 +17°C° 0 mm 3 mps 759 mmHg 81%
    05:00 +17°C° 0 mm 3 mps 758 mmHg 81%
    06:00 +19°C° 0 mm 3 mps 759 mmHg 74%
    07:00 +20°C° 0 mm 3 mps 759 mmHg 67%
    08:00 +22°C° 0 mm 3 mps 759 mmHg 60%
    09:00 +24°C° 0 mm 3 mps 758 mmHg 56%
    10:00 +25°C° 0 mm 4 mps 758 mmHg 52%
    11:00 +26°C° 0 mm 4 mps 758 mmHg 49%
    12:00 +26°C° 0 mm 4 mps 758 mmHg 48%
    13:00 +26°C° 0 mm 4 mps 758 mmHg 47%
    14:00 +27°C° 0 mm 4 mps 758 mmHg 46%
    15:00 +27°C° 0 mm 3 mps 757 mmHg 47%
    16:00 +26°C° 0 mm 3 mps 756 mmHg 48%
    17:00 +26°C° 0 mm 2 mps 756 mmHg 50%
    18:00 +24°C° 0 mm 2 mps 756 mmHg 55%
    19:00 +23°C° 0 mm 1 mps 755 mmHg 60%
    20:00 +21°C° 0 mm 1 mps 755 mmHg 65%
    21:00 +20°C° 0 mm 1 mps 755 mmHg 66%
    22:00 +20°C° 0 mm 1 mps 755 mmHg 68%
    23:00 +19°C° 0 mm 1 mps 755 mmHg 69%

    Day after tomorrow, 27 June, Thursday

    Time Temperature Precipitation Wind Pressure Humidity
    00:00 +19°C° 0 mm 1 mps 754 mmHg 69%
    01:00 +18°C° 0 mm 2 mps 754 mmHg 70%
    02:00 +17°C° 0 mm 2 mps 754 mmHg 70%
    03:00 +17°C° 0 mm 2 mps 753 mmHg 71%
    04:00 +17°C° 0 mm 2 mps 753 mmHg 72%
    05:00 +17°C° 0 mm 2 mps 752 mmHg 74%
    06:00 +19°C° 0 mm 3 mps 752 mmHg 69%
    07:00 +21°C° 0 mm 3 mps 751 mmHg 65%
    08:00 +23°C° 0 mm 4 mps 751 mmHg 60%
    09:00 +25°C° 0 mm 4 mps 750 mmHg 58%
    10:00 +26°C° 0 mm 5 mps 749 mmHg 56%
    11:00 +27°C° 0 mm 6 mps 749 mmHg 53%
    12:00 +28°C° 0 mm 6 mps 748 mmHg 53%
    13:00 +29°C° 0 mm 6 mps 747 mmHg 53%
    14:00 +29°C° 0 mm 7 mps 746 mmHg 52%
    15:00 +29°C° 0.1 mm 6 mps 746 mmHg 57%
    16:00 +28°C° 0.1 mm 6 mps 745 mmHg 62%
    17:00 +28°C° 0.1 mm 6 mps 745 mmHg 67%
    18:00 +27°C° 0.2 mm 5 mps 744 mmHg 73%
    19:00 +25°C° 0.2 mm 5 mps 744 mmHg 79%
    20:00 +23°C° 0.2 mm 4 mps 744 mmHg 85%
    21:00 +21°C° 0 mm 4 mps 744 mmHg 85%
    22:00 +20°C° 0 mm 5 mps 744 mmHg 84%
    23:00 +19°C° 0 mm 5 mps 744 mmHg 83%

    28 June, Friday

    Time Temperature Precipitation Wind Pressure Humidity
    00:00 +17°C° 0 mm 5 mps 744 mmHg 85%
    01:00 +17°C° 0 mm 5 mps 744 mmHg 86%
    02:00 +16°C° 0 mm 5 mps 744 mmHg 87%
    03:00 +16°C° 0 mm 5 mps 744 mmHg 87%
    04:00 +16°C° 0 mm 5 mps 744 mmHg 86%
    05:00 +15°C° 0 mm 5 mps 744 mmHg 86%
    06:00 +16°C° 0 mm 5 mps 744 mmHg 81%
    07:00 +17°C° 0 mm 6 mps 744 mmHg 77%
    08:00 +18°C° 0 mm 7 mps 744 mmHg 73%
    09:00 +18°C° 0.1 mm 7 mps 744 mmHg 69%
    10:00 +20°C° 0.1 mm 7 mps 744 mmHg 65%
    11:00 +21°C° 0.1 mm 8 mps 744 mmHg 61%
    12:00 +21°C° 0.1 mm 7 mps 744 mmHg 59%
    13:00 +21°C° 0.1 mm 7 mps 744 mmHg 56%
    14:00 +21°C° 0.1 mm 7 mps 744 mmHg 54%
    15:00 +21°C° 0.1 mm 7 mps 744 mmHg 56%
    16:00 +20°C° 0.1 mm 7 mps 744 mmHg 59%
    17:00 +20°C° 0.1 mm 7 mps 744 mmHg 61%
    18:00 +18°C° 0.2 mm 7 mps 744 mmHg 68%
    19:00 +16°C° 0.2 mm 6 mps 745 mmHg 74%
    20:00 +15°C° 0.2 mm 5 mps 745 mmHg 80%
    21:00 +14°C° 0 mm 5 mps 745 mmHg 82%
    22:00 +14°C° 0 mm 5 mps 745 mmHg 83%
    23:00 +13°C° 0 mm 4 mps 746 mmHg 85%

    29 June, Saturday

    Time Temperature Precipitation Wind Pressure Humidity
    00:00 +13°C° 0 mm 4 mps 745 mmHg 85%
    01:00 +12°C° 0 mm 5 mps 745 mmHg 84%
    02:00 +12°C° 0 mm 5 mps 745 mmHg 84%
    03:00 +12°C° 0 mm 5 mps 745 mmHg 84%
    04:00 +12°C° 0 mm 5 mps 745 mmHg 84%
    05:00 +12°C° 0 mm 5 mps 745 mmHg 83%
    06:00 +13°C° 0.1 mm 5 mps 745 mmHg 78%
    07:00 +14°C° 0.1 mm 5 mps 745 mmHg 73%
    08:00 +16°C° 0.1 mm 6 mps 746 mmHg 68%
    09:00 +16°C° 0.3 mm 5 mps 746 mmHg 63%
    10:00 +17°C° 0.3 mm 5 mps 746 mmHg 58%
    11:00 +19°C° 0.3 mm 5 mps 746 mmHg 53%
    12:00 +19°C° 0.3 mm 5 mps 746 mmHg 52%
    13:00 +19°C° 0.3 mm 5 mps 746 mmHg 51%
    14:00 +19°C° 0.3 mm 5 mps 746 mmHg 49%
    15:00 +19°C° 0.4 mm 5 mps 746 mmHg 53%
    16:00 +17°C° 0.4 mm 5 mps 746 mmHg 57%
    17:00 +17°C° 0.4 mm 5 mps 746 mmHg 61%
    18:00 +15°C° 0.2 mm 5 mps 747 mmHg 66%
    19:00 +14°C° 0.2 mm 4 mps 747 mmHg 72%
    20:00 +12°C° 0.2 mm 4 mps 748 mmHg 77%
    21:00 +12°C° 0 mm 4 mps 748 mmHg 78%
    22:00 +11°C° 0 mm 4 mps 748 mmHg 78%
    23:00 +11°C° 0 mm 3 mps 748 mmHg 78%

    30 June, Sunday

    Time Temperature Precipitation Wind Pressure Humidity
    00:00 +11°C° 0 mm 3 mps 748 mmHg 78%
    01:00 +11°C° 0 mm 3 mps 749 mmHg 78%
    02:00 +10°C° 0 mm 3 mps 749 mmHg 78%
    03:00 +10°C° 0 mm 3 mps 749 mmHg 79%
    04:00 +10°C° 0 mm 3 mps 749 mmHg 80%
    05:00 +10°C° 0 mm 3 mps 749 mmHg 81%
    06:00 +12°C° 0.1 mm 4 mps 749 mmHg 74%
    07:00 +14°C° 0.1 mm 4 mps 749 mmHg 68%
    08:00 +15°C° 0.1 mm 5 mps 749 mmHg 62%
    09:00 +16°C° 0 mm 5 mps 750 mmHg 57%
    10:00 +17°C° 0 mm 5 mps 750 mmHg 52%
    11:00 +19°C° 0 mm 5 mps 750 mmHg 47%
    12:00 +19°C° 0 mm 5 mps 750 mmHg 47%
    13:00 +19°C° 0 mm 5 mps 750 mmHg 47%
    14:00 +19°C° 0 mm 5 mps 750 mmHg 48%
    15:00 +19°C° 0 mm 5 mps 750 mmHg 50%
    16:00 +19°C° 0 mm 4 mps 750 mmHg 52%
    17:00 +19°C° 0 mm 4 mps 751 mmHg 54%
    18:00 +18°C° 0 mm 3 mps 751 mmHg 55%
    19:00 +17°C° 0 mm 3 mps 751 mmHg 56%
    20:00 +17°C° 0 mm 2 mps 751 mmHg 57%
    21:00 +16°C° 0 mm 2 mps 752 mmHg 60%
    22:00 +15°C° 0 mm 2 mps 752 mmHg 62%
    23:00 +14°C° 0 mm 1 mps 752 mmHg 65%
    Show more